| time (UTC) | temp F | wind direction | speed MPH | gust MPH | rain 1hr in | rain 24hr in | rain mn in | humidity % | barometer mb |
| 20260831190018 | 54 | 0.0 | 0.0 | 0.00 | 0.02 | 0.00 | 95 | 1018.2 | |
| 20260831185518 | 54 | 0.0 | 0.0 | 0.00 | 0.02 | 0.00 | 95 | 1018.4 | |
| 20260831185018 | 54 | 0.0 | 0.0 | 0.00 | 0.02 | 0.00 | 95 | 1018.4 | |
| 20260831184538 | 54 | 0.0 | 0.0 | 0.00 | 0.02 | 0.00 | 95 | 1018.4 | |
| 20260831184018 | 54 | 0.0 | 0.0 | 0.00 | 0.02 | 0.00 | 95 | 1018.3 | |
| 20260831183518 | 53 | 0.0 | 1.0 | 0.00 | 0.02 | 0.00 | 95 | 1018.3 | |
| 20260831183018 | 53 | 293 | 2.0 | 2.0 | 0.00 | 0.02 | 0.00 | 95 | 1018.4 |
| 20260831182518 | 53 | 293 | 2.0 | 3.0 | 0.00 | 0.02 | 0.00 | 95 | 1018.3 |
| 20260831182018 | 53 | 293 | 2.0 | 3.0 | 0.00 | 0.02 | 0.00 | 95 | 1018.4 |
| 20260831181517 | 52 | 293 | 2.0 | 3.0 | 0.00 | 0.02 | 0.00 | 95 | 1018.4 |
| 20260831181017 | 52 | 0.0 | 2.0 | 0.00 | 0.02 | 0.00 | 94 | 1018.4 | |
| 20260831180518 | 52 | 0.0 | 0.0 | 0.00 | 0.02 | 0.00 | 94 | 1018.5 | |
| 20260831180018 | 52 | 293 | 1.0 | 2.0 | 0.00 | 0.02 | 0.00 | 94 | 1018.7 |
| 20260831175518 | 53 | 293 | 2.0 | 3.0 | 0.00 | 0.02 | 0.00 | 94 | 1018.6 |
| 20260831175018 | 53 | 293 | 1.0 | 2.0 | 0.00 | 0.02 | 0.00 | 94 | 1018.7 |
| 20260831174518 | 53 | 293 | 1.0 | 2.0 | 0.00 | 0.02 | 0.00 | 94 | 1018.7 |
| 20260831174018 | 53 | 293 | 1.0 | 3.0 | 0.00 | 0.02 | 0.00 | 94 | 1018.6 |
| 20260831173519 | 54 | 293 | 1.0 | 2.0 | 0.00 | 0.02 | 0.00 | 94 | 1018.8 |
| 20260831173018 | 54 | 338 | 2.0 | 3.0 | 0.00 | 0.02 | 0.00 | 94 | 1018.8 |
| 20260831172518 | 54 | 315 | 2.0 | 3.0 | 0.00 | 0.02 | 0.00 | 95 | 1018.9 |
| 20260831172017 | 54 | 0 | 1.0 | 2.0 | 0.00 | 0.02 | 0.00 | 94 | 1018.9 |
| 20260831171539 | 53 | 0 | 2.0 | 3.0 | 0.00 | 0.02 | 0.00 | 95 | 1018.8 |
| 20260831171018 | 53 | 0 | 1.0 | 2.0 | 0.00 | 0.02 | 0.00 | 94 | 1018.9 |
| 20260831170518 | 52 | 0 | 1.0 | 2.0 | 0.00 | 0.02 | 0.00 | 94 | 1018.8 |
| 20260831170017 | 53 | 0 | 2.0 | 4.0 | 0.00 | 0.02 | 0.00 | 94 | 1018.9 |
| 20260831165538 | 52 | 0 | 2.0 | 3.0 | 0.00 | 0.02 | 0.00 | 93 | 1018.9 |
| 20260831165017 | 52 | 338 | 3.0 | 3.0 | 0.00 | 0.02 | 0.00 | 94 | 1018.9 |
| 20260831164538 | 52 | 315 | 1.0 | 3.0 | 0.00 | 0.02 | 0.00 | 92 | 1018.9 |
| 20260831164017 | 53 | 0.0 | 0.0 | 0.00 | 0.02 | 0.00 | 93 | 1019.0 | |
| 20260831163517 | 53 | 0.0 | 0.0 | 0.00 | 0.02 | 0.00 | 93 | 1019.0 | |
| 20260831163017 | 53 | 315 | 1.0 | 2.0 | 0.00 | 0.02 | 0.00 | 93 | 1019.1 |
| 20260831162518 | 53 | 315 | 2.0 | 2.0 | 0.00 | 0.02 | 0.00 | 93 | 1019.1 |
| 20260831162040 | 53 | 315 | 1.0 | 3.0 | 0.00 | 0.02 | 0.00 | 93 | 1019.2 |
| 20260831161518 | 53 | 315 | 1.0 | 2.0 | 0.00 | 0.02 | 0.00 | 92 | 1019.3 |
| 20260831161018 | 53 | 315 | 1.0 | 2.0 | 0.00 | 0.02 | 0.00 | 92 | 1019.2 |
| 20260831160517 | 53 | 315 | 2.0 | 3.0 | 0.00 | 0.02 | 0.00 | 92 | 1019.3 |
| 20260831160017 | 53 | 315 | 2.0 | 3.0 | 0.00 | 0.02 | 0.02 | 92 | 1019.3 |
| 20260831155540 | 54 | 315 | 1.0 | 3.0 | 0.00 | 0.02 | 0.02 | 92 | 1019.3 |
| 20260831155019 | 54 | 315 | 2.0 | 3.0 | 0.00 | 0.02 | 0.02 | 92 | 1019.3 |
| 20260831154519 | 54 | 315 | 2.0 | 4.0 | 0.00 | 0.02 | 0.02 | 92 | 1019.4 |
| 20260831154039 | 54 | 293 | 1.0 | 3.0 | 0.00 | 0.02 | 0.02 | 92 | 1019.4 |
| 20260831153519 | 55 | 0.0 | 0.0 | 0.00 | 0.02 | 0.02 | 92 | 1019.4 | |
| 20260831153019 | 54 | 0.0 | 1.0 | 0.00 | 0.02 | 0.02 | 92 | 1019.4 | |
| 20260831152518 | 54 | 293 | 1.0 | 2.0 | 0.00 | 0.02 | 0.02 | 91 | 1019.4 |
| 20260831152018 | 54 | 293 | 1.0 | 2.0 | 0.00 | 0.02 | 0.02 | 91 | 1019.4 |
| 20260831151519 | 54 | 293 | 1.0 | 3.0 | 0.00 | 0.02 | 0.02 | 90 | 1019.4 |
| 20260831151019 | 54 | 293 | 1.0 | 3.0 | 0.00 | 0.02 | 0.02 | 90 | 1019.4 |
| 20260831150539 | 54 | 293 | 1.0 | 2.0 | 0.00 | 0.02 | 0.02 | 89 | 1019.5 |
| 20260831150018 | 55 | 293 | 2.0 | 3.0 | 0.00 | 0.02 | 0.02 | 89 | 1019.5 |
| 20260831145518 | 56 | 293 | 2.0 | 3.0 | 0.00 | 0.02 | 0.02 | 88 | 1019.6 |
| 20260831145019 | 57 | 293 | 2.0 | 3.0 | 0.00 | 0.02 | 0.02 | 89 | 1019.6 |
| 20260831144519 | 57 | 293 | 2.0 | 3.0 | 0.00 | 0.02 | 0.02 | 88 | 1019.6 |
| 20260831144018 | 58 | 293 | 2.0 | 3.0 | 0.00 | 0.02 | 0.02 | 88 | 1019.7 |
| 20260831143539 | 58 | 270 | 3.0 | 4.0 | 0.00 | 0.02 | 0.02 | 88 | 1019.6 |
| 20260831143018 | 59 | 270 | 2.0 | 4.0 | 0.00 | 0.02 | 0.02 | 89 | 1019.7 |
| 20260831142519 | 58 | 270 | 2.0 | 4.0 | 0.00 | 0.02 | 0.02 | 90 | 1019.6 |
| 20260831142018 | 58 | 270 | 3.0 | 4.0 | 0.00 | 0.02 | 0.02 | 90 | 1019.8 |
| 20260831141519 | 58 | 270 | 3.0 | 4.0 | 0.00 | 0.02 | 0.02 | 89 | 1019.7 |
| 20260831141018 | 58 | 293 | 2.0 | 4.0 | 0.00 | 0.02 | 0.02 | 89 | 1019.7 |
| 20260831140519 | 58 | 270 | 2.0 | 4.0 | 0.00 | 0.02 | 0.02 | 89 | 1019.7 |
| 20260831140100 | 59 | 270 | 2.0 | 4.0 | 0.00 | 0.02 | 0.02 | 88 | 1019.7 |
| 20260831135519 | 59 | 248 | 2.0 | 6.0 | 0.00 | 0.02 | 0.02 | 90 | 1019.8 |
| 20260831135018 | 59 | 248 | 2.0 | 4.0 | 0.00 | 0.02 | 0.02 | 91 | 1019.8 |
| 20260831134519 | 58 | 248 | 1.0 | 3.0 | 0.00 | 0.02 | 0.02 | 91 | 1019.7 |
| 20260831134018 | 58 | 248 | 2.0 | 3.0 | 0.00 | 0.02 | 0.02 | 92 | 1019.7 |
| 20260831133600 | 56 | 270 | 1.0 | 3.0 | 0.00 | 0.02 | 0.02 | 91 | 1019.5 |
| 20260831133018 | 56 | 270 | 1.0 | 2.0 | 0.00 | 0.02 | 0.02 | 89 | 1019.5 |
| 20260831132539 | 56 | 270 | 1.0 | 2.0 | 0.00 | 0.02 | 0.02 | 88 | 1019.5 |
| 20260831132039 | 57 | 270 | 2.0 | 3.0 | 0.00 | 0.02 | 0.02 | 87 | 1019.5 |
| 20260831131519 | 58 | 270 | 2.0 | 3.0 | 0.00 | 0.02 | 0.02 | 88 | 1019.6 |
| 20260831131018 | 58 | 270 | 2.0 | 4.0 | 0.00 | 0.02 | 0.02 | 89 | 1019.5 |
| 20260831130518 | 58 | 270 | 2.0 | 4.0 | 0.00 | 0.02 | 0.02 | 89 | 1019.4 |
| 20260831130018 | 58 | 270 | 2.0 | 3.0 | 0.00 | 0.02 | 0.02 | 89 | 1019.3 |
| 20260831125521 | 58 | 270 | 2.0 | 3.0 | 0.00 | 0.02 | 0.02 | 90 | 1019.3 |
| 20260831125018 | 58 | 270 | 2.0 | 3.0 | 0.00 | 0.02 | 0.02 | 90 | 1019.3 |
| 20260831124518 | 58 | 270 | 2.0 | 4.0 | 0.00 | 0.02 | 0.02 | 89 | 1019.3 |
| 20260831124018 | 58 | 270 | 3.0 | 3.0 | 0.00 | 0.02 | 0.02 | 89 | 1019.3 |
| 20260831123539 | 58 | 270 | 2.0 | 4.0 | 0.00 | 0.02 | 0.02 | 89 | 1019.3 |
| 20260831123018 | 58 | 270 | 3.0 | 4.0 | 0.00 | 0.02 | 0.02 | 89 | 1019.3 |
| 20260831122518 | 58 | 270 | 4.0 | 6.0 | 0.00 | 0.02 | 0.02 | 89 | 1019.2 |
| 20260831122018 | 58 | 270 | 3.0 | 4.0 | 0.00 | 0.02 | 0.02 | 89 | 1019.3 |
| 20260831121518 | 58 | 270 | 3.0 | 4.0 | 0.00 | 0.02 | 0.02 | 89 | 1019.2 |
| 20260831121039 | 58 | 270 | 3.0 | 4.0 | 0.00 | 0.02 | 0.02 | 89 | 1019.2 |
| 20260831120518 | 58 | 270 | 3.0 | 6.0 | 0.00 | 0.02 | 0.02 | 88 | 1019.1 |
| 20260831120018 | 58 | 293 | 3.0 | 4.0 | 0.00 | 0.02 | 0.02 | 88 | 1019.1 |
| 20260831115518 | 58 | 293 | 3.0 | 6.0 | 0.00 | 0.02 | 0.02 | 88 | 1018.9 |
| 20260831115018 | 58 | 270 | 4.0 | 6.0 | 0.00 | 0.02 | 0.02 | 88 | 1018.9 |
| 20260831114518 | 58 | 270 | 4.0 | 6.0 | 0.00 | 0.02 | 0.02 | 88 | 1019.0 |
| 20260831114018 | 58 | 270 | 4.0 | 7.0 | 0.00 | 0.02 | 0.02 | 87 | 1018.9 |
| 20260831113518 | 58 | 293 | 4.0 | 6.0 | 0.00 | 0.02 | 0.02 | 86 | 1018.7 |
| 20260831113018 | 58 | 293 | 4.0 | 6.0 | 0.00 | 0.02 | 0.02 | 85 | 1018.7 |
| 20260831112518 | 59 | 293 | 4.0 | 8.0 | 0.00 | 0.02 | 0.02 | 84 | 1018.7 |
| 20260831112018 | 60 | 270 | 4.0 | 8.0 | 0.00 | 0.02 | 0.02 | 85 | 1018.7 |
| 20260831111539 | 60 | 270 | 5.0 | 7.0 | 0.00 | 0.02 | 0.02 | 84 | 1018.7 |
| 20260831111018 | 60 | 270 | 5.0 | 8.0 | 0.00 | 0.02 | 0.02 | 83 | 1018.7 |
| 20260831110518 | 61 | 270 | 5.0 | 9.0 | 0.00 | 0.02 | 0.02 | 83 | 1018.6 |
| 20260831110018 | 61 | 270 | 5.0 | 9.0 | 0.00 | 0.02 | 0.02 | 83 | 1018.5 |
| 20260831105518 | 61 | 248 | 4.0 | 9.0 | 0.00 | 0.02 | 0.02 | 83 | 1018.4 |
| 20260831105018 | 61 | 270 | 5.0 | 9.0 | 0.00 | 0.02 | 0.02 | 82 | 1018.3 |
| 20260831104539 | 61 | 270 | 5.0 | 9.0 | 0.00 | 0.02 | 0.02 | 82 | 1018.2 |
| 20260831104018 | 61 | 270 | 6.0 | 10.0 | 0.00 | 0.02 | 0.02 | 82 | 1018.2 |
| 20260831103518 | 61 | 270 | 5.0 | 8.0 | 0.00 | 0.02 | 0.02 | 81 | 1018.2 |
| 20260831103018 | 61 | 270 | 5.0 | 8.0 | 0.00 | 0.02 | 0.02 | 81 | 1018.1 |
| 20260831102518 | 61 | 270 | 5.0 | 9.0 | 0.00 | 0.02 | 0.02 | 80 | 1018.1 |
| 20260831102018 | 62 | 270 | 5.0 | 7.0 | 0.00 | 0.02 | 0.02 | 79 | 1018.0 |
| 20260831101518 | 62 | 270 | 4.0 | 8.0 | 0.00 | 0.02 | 0.02 | 79 | 1018.0 |
| 20260831101018 | 62 | 248 | 4.0 | 8.0 | 0.00 | 0.02 | 0.02 | 78 | 1018.1 |
| 20260831100518 | 62 | 248 | 5.0 | 8.0 | 0.00 | 0.02 | 0.02 | 77 | 1018.0 |
| 20260831100018 | 62 | 248 | 4.0 | 8.0 | 0.00 | 0.02 | 0.02 | 76 | 1017.9 |
| 20260831095518 | 63 | 225 | 4.0 | 7.0 | 0.00 | 0.02 | 0.02 | 75 | 1018.1 |
| 20260831095018 | 63 | 248 | 5.0 | 9.0 | 0.00 | 0.02 | 0.02 | 74 | 1018.0 |
| 20260831094518 | 64 | 225 | 4.0 | 8.0 | 0.00 | 0.02 | 0.02 | 73 | 1017.9 |
| 20260831094018 | 64 | 248 | 5.0 | 9.0 | 0.00 | 0.02 | 0.02 | 72 | 1017.8 |
| 20260831093519 | 65 | 248 | 6.0 | 11.0 | 0.00 | 0.02 | 0.02 | 71 | 1017.8 |
| 20260831093018 | 65 | 225 | 5.0 | 9.0 | 0.00 | 0.02 | 0.02 | 70 | 1017.9 |
| 20260831092518 | 65 | 225 | 6.0 | 10.0 | 0.00 | 0.02 | 0.02 | 68 | 1017.8 |
| 20260831092038 | 66 | 225 | 6.0 | 11.0 | 0.00 | 0.02 | 0.02 | 66 | 1017.7 |
| 20260831091517 | 66 | 225 | 5.0 | 10.0 | 0.00 | 0.02 | 0.02 | 65 | 1017.8 |
| 20260831091017 | 66 | 225 | 5.0 | 9.0 | 0.00 | 0.02 | 0.02 | 65 | 1017.7 |
| 20260831090518 | 66 | 225 | 8.0 | 13.0 | 0.00 | 0.02 | 0.02 | 64 | 1017.6 |
| 20260831090018 | 67 | 225 | 6.0 | 10.0 | 0.00 | 0.02 | 0.02 | 63 | 1017.6 |
| 20260831085518 | 67 | 225 | 6.0 | 11.0 | 0.00 | 0.02 | 0.02 | 62 | 1017.4 |
| 20260831085017 | 67 | 225 | 8.0 | 14.0 | 0.00 | 0.02 | 0.02 | 63 | 1017.4 |
| 20260831084538 | 67 | 225 | 8.0 | 14.0 | 0.00 | 0.02 | 0.02 | 62 | 1017.3 |
| 20260831084017 | 67 | 225 | 7.0 | 13.0 | 0.00 | 0.02 | 0.02 | 62 | 1017.3 |
| 20260831083519 | 67 | 225 | 7.0 | 13.0 | 0.00 | 0.02 | 0.02 | 61 | 1017.3 |
| 20260831083017 | 68 | 225 | 7.0 | 13.0 | 0.00 | 0.02 | 0.02 | 60 | 1017.3 |
| 20260831082518 | 68 | 248 | 6.0 | 11.0 | 0.00 | 0.02 | 0.02 | 60 | 1017.3 |
| 20260831082018 | 68 | 225 | 6.0 | 14.0 | 0.00 | 0.02 | 0.02 | 60 | 1017.1 |
| 20260831081518 | 68 | 225 | 8.0 | 13.0 | 0.00 | 0.02 | 0.02 | 61 | 1017.1 |
| 20260831081017 | 68 | 225 | 8.0 | 13.0 | 0.00 | 0.02 | 0.02 | 60 | 1017.1 |
| 20260831080517 | 68 | 225 | 5.0 | 10.0 | 0.00 | 0.02 | 0.02 | 62 | 1017.0 |
| 20260831080017 | 68 | 225 | 8.0 | 14.0 | 0.00 | 0.02 | 0.02 | 61 | 1017.1 |
| 20260831075517 | 68 | 225 | 8.0 | 15.0 | 0.00 | 0.02 | 0.02 | 60 | 1016.9 |
| 20260831075018 | 68 | 225 | 8.0 | 15.0 | 0.00 | 0.02 | 0.02 | 58 | 1016.9 |
| 20260831074517 | 69 | 225 | 8.0 | 14.0 | 0.00 | 0.02 | 0.02 | 57 | 1017.0 |
| 20260831074017 | 69 | 225 | 9.0 | 16.0 | 0.00 | 0.02 | 0.02 | 58 | 1016.8 |
| 20260831073600 | 69 | 225 | 8.0 | 12.0 | 0.00 | 0.02 | 0.02 | 58 | 1016.9 |
| 20260831073017 | 69 | 248 | 7.0 | 11.0 | 0.00 | 0.02 | 0.02 | 56 | 1017.0 |
| 20260831072517 | 69 | 270 | 8.0 | 13.0 | 0.00 | 0.02 | 0.02 | 56 | 1016.9 |
| 20260831072017 | 69 | 225 | 8.0 | 13.0 | 0.00 | 0.02 | 0.02 | 59 | 1016.8 |
| 20260831071517 | 69 | 225 | 8.0 | 15.0 | 0.00 | 0.02 | 0.02 | 58 | 1016.8 |
| 20260831071017 | 69 | 270 | 8.0 | 12.0 | 0.00 | 0.02 | 0.02 | 57 | 1016.8 |
| 20260831070517 | 69 | 225 | 7.0 | 15.0 | 0.00 | 0.02 | 0.02 | 59 | 1016.8 |
| 20260831070039 | 69 | 225 | 8.0 | 14.0 | 0.00 | 0.02 | 0.02 | 60 | 1016.8 |
| 20260831065517 | 69 | 225 | 7.0 | 11.0 | 0.00 | 0.02 | 0.02 | 62 | 1016.7 |
| 20260831065018 | 69 | 225 | 7.0 | 13.0 | 0.00 | 0.02 | 0.02 | 63 | 1016.7 |
| 20260831064538 | 70 | 248 | 7.0 | 13.0 | 0.00 | 0.02 | 0.02 | 60 | 1016.8 |
| 20260831064018 | 70 | 225 | 9.0 | 15.0 | 0.00 | 0.02 | 0.02 | 60 | 1016.7 |
| 20260831063518 | 70 | 248 | 8.0 | 13.0 | 0.00 | 0.02 | 0.02 | 60 | 1016.7 |
| 20260831063039 | 71 | 270 | 7.0 | 14.0 | 0.00 | 0.02 | 0.02 | 57 | 1016.7 |
| 20260831062517 | 70 | 270 | 6.0 | 12.0 | 0.00 | 0.02 | 0.02 | 55 | 1016.6 |
| 20260831062017 | 70 | 248 | 5.0 | 11.0 | 0.00 | 0.02 | 0.02 | 58 | 1016.6 |
| 20260831061518 | 70 | 293 | 7.0 | 11.0 | 0.00 | 0.02 | 0.02 | 57 | 1016.6 |
| 20260831061017 | 70 | 225 | 6.0 | 13.0 | 0.00 | 0.02 | 0.02 | 59 | 1016.6 |
| 20260831060517 | 70 | 225 | 6.0 | 12.0 | 0.00 | 0.02 | 0.02 | 60 | 1016.6 |
| 20260831060017 | 70 | 225 | 7.0 | 11.0 | 0.00 | 0.02 | 0.02 | 57 | 1016.6 |
| 20260831055517 | 70 | 225 | 8.0 | 12.0 | 0.00 | 0.02 | 0.02 | 59 | 1016.6 |
| 20260831055017 | 69 | 270 | 6.0 | 12.0 | 0.00 | 0.02 | 0.02 | 59 | 1016.6 |
| 20260831054517 | 69 | 270 | 6.0 | 14.0 | 0.00 | 0.02 | 0.02 | 59 | 1016.6 |
| 20260831054038 | 69 | 248 | 9.0 | 15.0 | 0.00 | 0.02 | 0.02 | 61 | 1016.6 |
| 20260831053517 | 69 | 248 | 5.0 | 11.0 | 0.00 | 0.02 | 0.02 | 62 | 1016.6 |
| 20260831053017 | 69 | 293 | 11.0 | 19.0 | 0.00 | 0.02 | 0.02 | 61 | 1016.7 |
| 20260831052517 | 69 | 270 | 7.0 | 12.0 | 0.00 | 0.02 | 0.02 | 61 | 1016.7 |
| 20260831052017 | 69 | 270 | 9.0 | 14.0 | 0.00 | 0.02 | 0.02 | 61 | 1016.8 |
| 20260831051519 | 69 | 270 | 7.0 | 14.0 | 0.00 | 0.02 | 0.02 | 61 | 1016.6 |
| 20260831051017 | 69 | 270 | 6.0 | 12.0 | 0.00 | 0.02 | 0.02 | 64 | 1016.7 |
| 20260831050517 | 68 | 270 | 8.0 | 13.0 | 0.00 | 0.02 | 0.02 | 66 | 1016.7 |
| 20260831050039 | 68 | 270 | 11.0 | 15.0 | 0.00 | 0.02 | 0.02 | 64 | 1016.8 |
| 20260831045518 | 69 | 270 | 9.0 | 12.0 | 0.00 | 0.02 | 0.02 | 63 | 1016.8 |
| 20260831045017 | 69 | 270 | 6.0 | 12.0 | 0.00 | 0.02 | 0.02 | 66 | 1016.9 |
| 20260831044517 | 69 | 270 | 6.0 | 12.0 | 0.00 | 0.02 | 0.02 | 68 | 1017.1 |
| 20260831044017 | 68 | 270 | 7.0 | 11.0 | 0.00 | 0.02 | 0.02 | 67 | 1017.1 |
| 20260831043517 | 68 | 248 | 7.0 | 14.0 | 0.00 | 0.02 | 0.02 | 69 | 1017.2 |
| 20260831043017 | 68 | 293 | 9.0 | 13.0 | 0.00 | 0.02 | 0.02 | 65 | 1017.1 |
| 20260831042517 | 68 | 270 | 7.0 | 12.0 | 0.00 | 0.02 | 0.02 | 68 | 1017.1 |
| 20260831042018 | 67 | 270 | 6.0 | 11.0 | 0.00 | 0.02 | 0.02 | 68 | 1017.2 |
| 20260831041518 | 67 | 293 | 7.0 | 11.0 | 0.00 | 0.02 | 0.02 | 68 | 1017.3 |
| 20260831041017 | 67 | 293 | 8.0 | 13.0 | 0.00 | 0.02 | 0.02 | 69 | 1017.2 |
| 20260831040517 | 68 | 270 | 8.0 | 11.0 | 0.00 | 0.02 | 0.02 | 69 | 1017.4 |
| 20260831040017 | 68 | 270 | 7.0 | 13.0 | 0.00 | 0.02 | 0.02 | 69 | 1017.5 |
| 20260831035517 | 68 | 270 | 8.0 | 13.0 | 0.00 | 0.02 | 0.02 | 69 | 1017.6 |
| 20260831035019 | 67 | 270 | 7.0 | 11.0 | 0.00 | 0.02 | 0.02 | 70 | 1017.4 |
| 20260831034540 | 67 | 270 | 7.0 | 12.0 | 0.00 | 0.02 | 0.02 | 69 | 1017.5 |
| 20260831034019 | 67 | 270 | 5.0 | 14.0 | 0.00 | 0.02 | 0.02 | 72 | 1017.5 |
| 20260831033519 | 67 | 270 | 5.0 | 10.0 | 0.00 | 0.02 | 0.02 | 72 | 1017.5 |
| 20260831033019 | 67 | 225 | 7.0 | 14.0 | 0.00 | 0.02 | 0.02 | 73 | 1017.6 |
| 20260831032517 | 67 | 225 | 5.0 | 12.0 | 0.00 | 0.02 | 0.02 | 75 | 1017.6 |
| 20260831032041 | 66 | 270 | 4.0 | 6.0 | 0.00 | 0.02 | 0.02 | 75 | 1017.7 |
| 20260831031539 | 66 | 248 | 5.0 | 9.0 | 0.00 | 0.02 | 0.02 | 75 | 1017.8 |
| 20260831031041 | 67 | 248 | 7.0 | 11.0 | 0.00 | 0.02 | 0.02 | 75 | 1017.9 |
| 20260831030540 | 66 | 248 | 4.0 | 9.0 | 0.00 | 0.02 | 0.02 | 74 | 1017.8 |
| 20260831030019 | 66 | 225 | 4.0 | 8.0 | 0.00 | 0.02 | 0.02 | 74 | 1017.7 |
| 20260831025519 | 66 | 225 | 6.0 | 9.0 | 0.00 | 0.02 | 0.02 | 74 | 1017.6 |
| 20260831025019 | 66 | 248 | 6.0 | 11.0 | 0.00 | 0.02 | 0.02 | 76 | 1017.7 |
| 20260831024519 | 66 | 270 | 6.0 | 10.0 | 0.00 | 0.02 | 0.02 | 77 | 1017.6 |
| 20260831024040 | 66 | 270 | 7.0 | 12.0 | 0.00 | 0.02 | 0.02 | 78 | 1017.6 |
| 20260831023519 | 65 | 270 | 6.0 | 12.0 | 0.00 | 0.02 | 0.02 | 80 | 1017.7 |
| 20260831023020 | 65 | 270 | 6.0 | 11.0 | 0.00 | 0.02 | 0.02 | 82 | 1017.6 |
| 20260831022519 | 65 | 270 | 8.0 | 13.0 | 0.00 | 0.02 | 0.02 | 85 | 1017.6 |
| 20260831022019 | 65 | 270 | 7.0 | 13.0 | 0.00 | 0.02 | 0.02 | 86 | 1017.6 |
| 20260831021519 | 64 | 293 | 7.0 | 10.0 | 0.00 | 0.02 | 0.02 | 88 | 1017.6 |
| 20260831021040 | 63 | 293 | 5.0 | 9.0 | 0.00 | 0.02 | 0.02 | 89 | 1017.5 |
| 20260831020519 | 63 | 270 | 7.0 | 10.0 | 0.00 | 0.02 | 0.02 | 90 | 1017.5 |
| 20260831020018 | 63 | 225 | 3.0 | 5.0 | 0.00 | 0.02 | 0.02 | 92 | 1017.5 |
| 20260831015539 | 62 | 248 | 4.0 | 8.0 | 0.00 | 0.02 | 0.02 | 93 | 1017.5 |
| 20260831015019 | 62 | 270 | 4.0 | 7.0 | 0.00 | 0.02 | 0.02 | 94 | 1017.5 |
| 20260831014520 | 62 | 248 | 4.0 | 8.0 | 0.00 | 0.02 | 0.02 | 95 | 1017.4 |
| 20260831014039 | 61 | 248 | 3.0 | 7.0 | 0.00 | 0.02 | 0.02 | 96 | 1017.4 |
| 20260831013519 | 60 | 270 | 4.0 | 6.0 | 0.00 | 0.02 | 0.02 | 96 | 1017.3 |
| 20260831013018 | 60 | 270 | 4.0 | 8.0 | 0.00 | 0.02 | 0.02 | 97 | 1017.4 |
| 20260831012519 | 60 | 270 | 4.0 | 8.0 | 0.00 | 0.02 | 0.02 | 96 | 1017.4 |
| 20260831012019 | 60 | 270 | 4.0 | 7.0 | 0.00 | 0.02 | 0.02 | 96 | 1017.5 |
| 20260831011519 | 60 | 270 | 3.0 | 8.0 | 0.00 | 0.02 | 0.02 | 96 | 1017.4 |
| 20260831011019 | 60 | 270 | 3.0 | 8.0 | 0.00 | 0.02 | 0.02 | 97 | 1017.4 |
| 20260831010519 | 60 | 248 | 2.0 | 4.0 | 0.00 | 0.02 | 0.02 | 97 | 1017.4 |
| 20260831010019 | 60 | 270 | 4.0 | 6.0 | 0.00 | 0.02 | 0.02 | 96 | 1017.3 |
| 20260831005519 | 60 | 270 | 4.0 | 7.0 | 0.00 | 0.02 | 0.02 | 96 | 1017.3 |
| 20260831005018 | 60 | 270 | 4.0 | 6.0 | 0.00 | 0.02 | 0.02 | 97 | 1017.2 |
| 20260831004540 | 59 | 293 | 4.0 | 7.0 | 0.00 | 0.02 | 0.02 | 97 | 1017.1 |
| 20260831004019 | 59 | 293 | 4.0 | 7.0 | 0.00 | 0.02 | 0.02 | 97 | 1017.1 |
| 20260831003518 | 59 | 293 | 3.0 | 4.0 | 0.00 | 0.02 | 0.02 | 97 | 1017.0 |
| 20260831003019 | 58 | 293 | 2.0 | 5.0 | 0.00 | 0.02 | 0.02 | 97 | 1017.1 |
| 20260831002519 | 58 | 293 | 3.0 | 4.0 | 0.00 | 0.02 | 0.02 | 97 | 1017.2 |
| 20260831002018 | 57 | 293 | 3.0 | 4.0 | 0.00 | 0.02 | 0.02 | 96 | 1017.0 |
| 20260831001518 | 57 | 293 | 3.0 | 5.0 | 0.00 | 0.02 | 0.02 | 97 | 1017.0 |
| 20260831001018 | 57 | 315 | 3.0 | 4.0 | 0.00 | 0.02 | 0.02 | 96 | 1017.0 |
| 20260831000519 | 56 | 315 | 2.0 | 4.0 | 0.00 | 0.02 | 0.02 | 96 | 1017.0 |
| 20260831000039 | 56 | 315 | 3.0 | 4.0 | 0.00 | 0.02 | 0.02 | 96 | 1016.9 |
| 20260830235518 | 56 | 315 | 2.0 | 4.0 | 0.00 | 0.02 | 0.02 | 96 | 1016.9 |
| 20260830235018 | 56 | 315 | 3.0 | 4.0 | 0.00 | 0.02 | 0.02 | 96 | 1016.9 |
| 20260830234518 | 56 | 293 | 3.0 | 4.0 | 0.00 | 0.02 | 0.02 | 97 | 1016.8 |
| 20260830234101 | 56 | 315 | 3.0 | 5.0 | 0.00 | 0.02 | 0.02 | 97 | 1016.7 |
| 20260830233518 | 55 | 338 | 3.0 | 4.0 | 0.00 | 0.02 | 0.02 | 97 | 1016.8 |
| 20260830233019 | 54 | 338 | 3.0 | 4.0 | 0.00 | 0.02 | 0.02 | 97 | 1016.7 |
| 20260830232519 | 53 | 338 | 2.0 | 3.0 | 0.00 | 0.02 | 0.02 | 97 | 1016.5 |
| 20260830232018 | 53 | 338 | 2.0 | 3.0 | 0.00 | 0.02 | 0.02 | 96 | 1016.6 |
| 20260830231519 | 52 | 338 | 2.0 | 3.0 | 0.00 | 0.02 | 0.02 | 96 | 1016.5 |
| 20260830231019 | 52 | 338 | 1.0 | 2.0 | 0.00 | 0.02 | 0.02 | 96 | 1016.4 |
| 20260830230518 | 52 | 338 | 1.0 | 2.0 | 0.00 | 0.02 | 0.02 | 96 | 1016.4 |
| 20260830230018 | 52 | 338 | 2.0 | 2.0 | 0.00 | 0.02 | 0.02 | 96 | 1016.1 |
| 20260830225519 | 52 | 338 | 2.0 | 2.0 | 0.00 | 0.02 | 0.02 | 95 | 1016.2 |
| 20260830225018 | 52 | 338 | 1.0 | 2.0 | 0.00 | 0.02 | 0.02 | 95 | 1016.2 |
| 20260830224519 | 53 | 338 | 2.0 | 3.0 | 0.00 | 0.02 | 0.02 | 96 | 1016.1 |
| 20260830224018 | 53 | 338 | 2.0 | 3.0 | 0.01 | 0.02 | 0.02 | 96 | 1016.0 |
| 20260830223518 | 53 | 338 | 2.0 | 3.0 | 0.01 | 0.02 | 0.02 | 96 | 1015.9 |
| 20260830223018 | 52 | 0 | 2.0 | 3.0 | 0.01 | 0.02 | 0.02 | 96 | 1016.0 |
| 20260830222518 | 52 | 0 | 2.0 | 3.0 | 0.01 | 0.02 | 0.02 | 96 | 1016.0 |
| 20260830222018 | 53 | 0 | 2.0 | 3.0 | 0.01 | 0.02 | 0.02 | 96 | 1016.1 |
| 20260830221519 | 52 | 0 | 2.0 | 3.0 | 0.01 | 0.02 | 0.02 | 96 | 1015.9 |
| 20260830221018 | 52 | 0 | 2.0 | 3.0 | 0.01 | 0.02 | 0.02 | 95 | 1016.0 |
| 20260830220518 | 53 | 0 | 2.0 | 2.0 | 0.01 | 0.02 | 0.02 | 95 | 1015.9 |
| 20260830220018 | 53 | 0 | 2.0 | 3.0 | 0.01 | 0.02 | 0.02 | 96 | 1016.0 |
| 20260830215518 | 53 | 0 | 2.0 | 3.0 | 0.01 | 0.03 | 0.02 | 95 | 1016.0 |
| 20260830215018 | 53 | 0.0 | 2.0 | 0.01 | 0.03 | 0.02 | 95 | 1016.0 | |
| 20260830214518 | 53 | 0.0 | 0.0 | 0.01 | 0.03 | 0.02 | 95 | 1015.9 | |
| 20260830214018 | 53 | 0.0 | 0.0 | 0.00 | 0.02 | 0.01 | 95 | 1015.9 | |
| 20260830213600 | 54 | 0.0 | 0.0 | 0.00 | 0.02 | 0.01 | 95 | 1016.0 | |
| 20260830213018 | 54 | 0.0 | 0.0 | 0.00 | 0.02 | 0.01 | 95 | 1015.9 | |
| 20260830212518 | 54 | 0.0 | 1.0 | 0.00 | 0.02 | 0.01 | 95 | 1016.0 | |
| 20260830212018 | 55 | 0.0 | 2.0 | 0.00 | 0.02 | 0.01 | 95 | 1016.1 | |
| 20260830211518 | 55 | 270 | 2.0 | 4.0 | 0.00 | 0.02 | 0.01 | 95 | 1016.1 |
| 20260830211018 | 55 | 293 | 2.0 | 3.0 | 0.00 | 0.02 | 0.01 | 96 | 1016.0 |
| 20260830210518 | 55 | 293 | 1.0 | 3.0 | 0.00 | 0.02 | 0.01 | 96 | 1016.1 |
| 20260830210018 | 55 | 293 | 1.0 | 3.0 | 0.00 | 0.02 | 0.01 | 96 | 1016.1 |
| 20260830205518 | 55 | 293 | 2.0 | 4.0 | 0.00 | 0.02 | 0.01 | 97 | 1016.1 |
| 20260830205018 | 54 | 270 | 2.0 | 3.0 | 0.00 | 0.02 | 0.01 | 96 | 1016.1 |
| 20260830204518 | 53 | 270 | 2.0 | 3.0 | 0.00 | 0.02 | 0.01 | 95 | 1016.1 |
| 20260830204018 | 53 | 270 | 2.0 | 3.0 | 0.01 | 0.02 | 0.01 | 94 | 1016.0 |
| 20260830203519 | 54 | 270 | 2.0 | 2.0 | 0.01 | 0.02 | 0.01 | 95 | 1016.1 |
| 20260830203018 | 55 | 270 | 1.0 | 2.0 | 0.01 | 0.02 | 0.01 | 95 | 1016.1 |
| 20260830202518 | 55 | 270 | 1.0 | 2.0 | 0.01 | 0.02 | 0.01 | 95 | 1016.0 |
| 20260830202018 | 55 | 0.0 | 0.0 | 0.01 | 0.02 | 0.01 | 95 | 1016.0 | |
| 20260830201518 | 55 | 0.0 | 0.0 | 0.01 | 0.02 | 0.01 | 95 | 1016.0 | |
| 20260830201018 | 55 | 0.0 | 0.0 | 0.01 | 0.02 | 0.01 | 96 | 1016.0 | |
| 20260830200518 | 55 | 0.0 | 1.0 | 0.01 | 0.02 | 0.01 | 96 | 1015.9 | |
| 20260830200018 | 55 | 248 | 1.0 | 5.0 | 0.01 | 0.02 | 0.01 | 97 | 1015.9 |
| 20260830195518 | 54 | 270 | 2.0 | 4.0 | 0.01 | 0.02 | 0.01 | 96 | 1015.9 |
| 20260830195018 | 52 | 270 | 1.0 | 2.0 | 0.01 | 0.02 | 0.01 | 96 | 1015.9 |
| 20260830194518 | 51 | 0.0 | 2.0 | 0.01 | 0.02 | 0.01 | 96 | 1015.9 | |
| 20260830194018 | 50 | 315 | 1.0 | 3.0 | 0.00 | 0.02 | 0.00 | 95 | 1015.7 |
| 20260830193519 | 50 | 338 | 2.0 | 4.0 | 0.00 | 0.02 | 0.00 | 94 | 1015.9 |
| 20260830193018 | 51 | 248 | 3.0 | 4.0 | 0.00 | 0.02 | 0.00 | 94 | 1015.7 |
| 20260830192518 | 51 | 248 | 2.0 | 4.0 | 0.00 | 0.02 | 0.00 | 95 | 1015.8 |
| 20260830192039 | 51 | 248 | 2.0 | 3.0 | 0.00 | 0.02 | 0.00 | 95 | 1015.8 |
| 20260830191518 | 51 | 248 | 2.0 | 2.0 | 0.00 | 0.02 | 0.00 | 94 | 1015.9 |
| 20260830191018 | 51 | 248 | 1.0 | 2.0 | 0.00 | 0.02 | 0.00 | 95 | 1015.9 |
| 20260830190518 | 51 | 248 | 2.0 | 3.0 | 0.00 | 0.02 | 0.00 | 95 | 1016.1 |